Phoenix Deer Valley, AZ

1:08 PM MST on April 25, 2017 (GMT -0700)
Phoenix-Deer Valley Municipal

Weather History for KDVT - March, 2013

Change the Weather History Date:

Sunday, March 10, 2013

  Actual Average Record
Temperature  
Mean Temperature 56 °F -  
Max Temperature 70 °F 71 °F 98 °F (2002)
Min Temperature 41 °F 48 °F 41 °F (2013)
Degree Days  
Heating Degree Days 10    
Growing Degree Days 6 (Base 50)    
Moisture  
Dew Point 38 °F    
Average Humidity 60    
Maximum Humidity 89    
Minimum Humidity 24    
Precipitation  
Precipitation 0.00 in - - ()
Sea Level Pressure  
Sea Level Pressure 30.10 in    
Wind  
Wind Speed 3 mph (NNE)    
Max Wind Speed 10 mph    
Max Gust Speed 21 mph    
Visibility 10 miles    
Events      
Averages and records for this station are not official NWS values.
T = Trace of Precipitation, MM = Missing Value Source: NWS Daily Summary

Daily Weather History Graph

Daily Weather History Graph

Search for Another Location

Airport or City:

Trip Planner

Search our weather history database for the weather conditions in past years. The results will help you decide how hot, cold, wet, or windy it might be!

Date:

Astronomy

Mar. 10, 2013 Rise Set
Actual Time 6:44 AM MST 6:32 PM MST
Civil Twilight 6:20 AM MST 6:57 PM MST
Nautical Twilight 5:51 AM MST 7:26 PM MST
Astronomical Twilight 5:22 AM MST 7:55 PM MST
Moon 5:45 AM MST (3/10) 5:44 PM MST (3/10)
Length of Visible Light 12h 37m
Length of Day
11h 47m
Waning Crescent, 1% of the Moon is Illuminated
Mar 10
Waning Crescent
Mar 11
New
Mar 19
First Quarter
Mar 27
Full
Apr 2
Last Quarter

Hourly Weather History & Observations

Time (MST) Temp. Windchill Dew Point Humidity Pressure Visibility Wind Dir Wind Speed Gust Speed Precip Events Conditions
12:53 AM 45.0 °F 42.6 °F 39.9 °F 82% 30.08 in 10.0 mi NNE 4.6 mph - N/A   Clear
1:53 AM 44.1 °F 42.5 °F 39.9 °F 85% 30.09 in 10.0 mi North 3.5 mph - N/A   Clear
2:53 AM 42.1 °F - 39.0 °F 89% 30.09 in 10.0 mi Calm Calm - N/A   Clear
3:53 AM 43.0 °F 39.5 °F 39.0 °F 86% 30.09 in 10.0 mi NE 5.8 mph - N/A   Clear
4:53 AM 43.0 °F 40.3 °F 37.9 °F 82% 30.11 in 10.0 mi North 4.6 mph - N/A   Clear
5:53 AM 42.1 °F 38.4 °F 37.9 °F 85% 30.12 in 10.0 mi NE 5.8 mph - N/A   Clear
6:53 AM 41.0 °F 39.0 °F 37.0 °F 86% 30.13 in 10.0 mi ESE 3.5 mph - N/A   Clear
7:53 AM 43.0 °F - 39.0 °F 86% 30.15 in 10.0 mi Calm Calm - N/A   Clear
8:53 AM 48.9 °F - 39.9 °F 71% 30.17 in 10.0 mi Calm Calm - N/A   Clear
9:53 AM 52.0 °F - 41.0 °F 66% 30.17 in 10.0 mi Calm Calm - N/A   Clear
10:53 AM 55.0 °F - 41.0 °F 59% 30.16 in 10.0 mi Calm Calm - N/A   Clear
11:53 AM 59.0 °F - 41.0 °F 51% 30.14 in 10.0 mi Variable 3.5 mph - N/A   Clear
12:53 PM 64.0 °F - 37.0 °F 37% 30.11 in 10.0 mi NW 6.9 mph - N/A   Clear
1:53 PM 66.0 °F - 30.9 °F 27% 30.08 in 10.0 mi Calm Calm - N/A   Clear
2:18 PM 66.2 °F - 30.2 °F 26% 30.09 in 10.0 mi Variable 6.9 mph - N/A   Clear
2:53 PM 68.0 °F - 30.9 °F 25% 30.06 in 10.0 mi North 10.4 mph 20.7 mph N/A   Clear
3:53 PM 69.1 °F - 30.9 °F 24% 30.04 in 10.0 mi East 3.5 mph - N/A   Clear
4:53 PM 70.0 °F - 33.1 °F 26% 30.04 in 10.0 mi North 3.5 mph - N/A   Clear
5:53 PM 66.9 °F - 36.0 °F 32% 30.05 in 10.0 mi West 8.1 mph - N/A   Clear
7:53 PM 62.1 °F - 37.9 °F 41% 30.08 in 10.0 mi East 5.8 mph - N/A   Clear
8:53 PM 59.0 °F - 41.0 °F 51% 30.09 in 10.0 mi Calm Calm - N/A   Clear
9:53 PM 53.1 °F - 46.0 °F 77% 30.11 in 10.0 mi Calm Calm - N/A   Clear
10:53 PM 54.0 °F - 43.0 °F 66% 30.12 in 10.0 mi ENE 3.5 mph - N/A   Clear
11:53 PM 51.1 °F - 43.0 °F 74% 30.12 in 10.0 mi Calm Calm - N/A   Clear